#timestamp,LO_Frequency,Hit,StdDev 
1587679215.4,286047003.7,N
1587679235.3,286047005.6,N
1587679255.1,286047006.0,Y
1587679275.8,286047001.3,P
1587679295.7,286047003.0,P
1587679315.5,286047004.4,P
1587679335.4,286047003.2,N
1587679355.2,286047006.0,Y
1587679375.0,286046999.9,P
1587679375.9,286046999.9,N
1587679395.8,286047001.9,N
1587679415.6,286047002.1,N
1587679435.4,286046999.8,N
1587679455.3,286047002.3,N
1587679475.1,286047004.4,Y
1587679495.9,286047000.3,P
1587679515.7,286047000.9,N
1587679535.6,286046998.3,P
1587679555.4,286046998.5,N
1587679575.2,286047002.2,N
1587679595.1,286047001.1,N
1587679596.0,286047001.1,N
1587679615.8,286046997.8,N
1587679635.6,286046999.1,N
1587679655.5,286046996.1,N
1587679675.3,286046996.3,N
1587679695.2,286046994.1,Y
1587679715.9,286046998.0,P
1587679735.7,286046995.7,P
1587679755.6,286046996.8,N
1587679775.4,286046996.9,N
1587679795.2,286046999.6,N
1587679815.1,286046997.0,N
1587679816.0,286046997.0,N
1587679835.8,286046998.0,N
1587679855.7,286046997.3,N
1587679875.5,286046998.9,N
1587679895.3,286046997.4,N
1587679915.2,286046997.9,N
1587679935.0,286046994.9,Y
1587679935.9,286046994.9,P
1587679955.8,286046999.1,N
1587679975.6,286046998.8,N
1587679995.4,286047001.2,N
1587680015.3,286046998.3,N
1587680035.1,286047001.2,N
1587680055.8,286046998.2,N
1587680075.7,286047001.6,N
1587680095.5,286046999.7,N
1587680115.4,286046998.4,N
1587680135.2,286047001.0,N
1587680155.0,286046998.8,N
1587680155.9,286046998.8,N
1587680175.8,286046998.4,N
1587680195.6,286047001.2,N
1587680215.5,286046998.5,N
1587680235.3,286046998.3,N
1587680255.1,286047000.0,N
1587680275.9,286047000.9,N
1587680295.7,286047000.9,N
1587680315.6,286046998.1,N
1587680335.4,286047001.1,N
1587680355.2,286047000.1,N
1587680375.1,286047002.6,N
1587680376.0,286047002.6,N
1587680395.8,286047003.8,N
1587680415.7,286047003.6,N
1587680435.5,286047004.4,N
1587680455.3,286047002.0,N
1587680475.2,286047002.8,N
1587680495.0,286047001.8,N
1587680495.9,286047001.8,N
1587680515.8,286047001.4,N
1587680535.6,286047000.0,N
1587680555.4,286047002.1,N
1587680575.3,286047002.3,N
1587680595.1,286047003.9,N
1587680615.8,286047003.9,N
1587680635.7,286047004.0,N
1587680655.5,286047000.9,N
1587680675.4,286046999.9,N
1587680695.2,286047001.0,N
1587680715.1,286047000.9,N
1587680746.0,286047002.8,E
1587680755.0,286047002.1,N
1587680755.9,286047002.1,P
1587680775.7,286047000.4,P
1587680795.6,286047000.7,N
1587680815.4,286047000.1,N
1587680835.3,286047000.0,N
1587680855.1,286047000.3,N
1587680875.8,286047002.6,Y
1587680895.7,286046998.6,P
1587680915.5,286046999.1,N
1587680935.4,286046998.6,N
1587680955.2,286046997.9,N
1587680975.0,286046999.3,N
1587680995.9,286047000.5,N
1587681015.7,286046999.4,N
1587681035.6,286046999.5,N
1587681055.4,286046998.5,N
1587681075.2,286047000.8,N
1587681095.1,286047002.3,N
1587681096.0,286047002.3,N
1587681115.8,286047000.1,N
1587681135.7,286047000.8,N
1587681155.5,286047000.2,N
1587681175.3,286047002.8,N
1587681195.2,286047004.0,N
1587681215.0,286047003.9,N
1587681215.9,286047003.9,N
1587681235.7,286047004.4,N
1587681255.6,286046999.7,N
1587681275.4,286046997.0,N
1587681295.3,286046999.2,N
1587681315.1,286046998.4,N
1587681316.0,286046998.4,N
1587681335.8,286047000.9,N
1587681355.7,286046996.6,N
1587681375.5,286046999.3,N
1587681395.4,286046997.5,N
1587681415.2,286046996.8,N
1587681435.0,286046997.2,N
1587681435.9,286046997.2,N
1587681455.8,286046997.3,N
1587681475.6,286046996.7,N
1587681495.5,286046997.8,N
1587681515.3,286046995.6,N
1587681535.1,286046997.8,N
1587681555.9,286046997.6,N
1587681575.7,286046997.2,N
1587681595.5,286046998.7,N
1587681615.4,286046999.4,N
1587681635.2,286046998.1,N
1587681655.1,286047001.9,N
1587681656.0,286047001.9,N
1587681675.8,286047001.5,N
1587681695.6,286047001.4,N
1587681715.5,286047000.6,N
1587681735.3,286046999.9,N
1587681785.2,286047002.1,E
1587681795.1,286047000.2,N
1587681796.0,286047000.2,P
1587681815.8,286046999.4,P
1587681835.7,286046998.9,N
1587681855.5,286046997.0,Y
1587681875.4,286046998.3,P
1587681895.2,286046995.3,P
1587681915.0,286046996.2,N
1587681915.9,286046996.2,N
1587681935.8,286046992.1,Y
1587681955.6,286046997.7,P
1587681975.5,286046999.2,N
1587681995.3,286047000.2,N
1587682015.1,286047002.7,N
1587682035.9,286046998.6,N
1587682055.7,286046996.8,N
1587682075.5,286046996.7,N
1587682095.4,286046998.4,N
1587682115.2,286046999.5,N
1587682135.1,286047002.3,N
1587682136.0,286047002.3,N
1587682155.8,286047002.3,N
1587682175.6,286046998.5,N
1587682195.5,286046997.0,N
1587682215.3,286046996.1,N
1587682235.1,286046996.9,N
1587682255.9,286046995.0,N
1587682275.7,286046997.7,N
1587682295.6,286046995.3,N
1587682315.4,286046999.5,N
1587682335.2,286047000.7,N
1587682355.1,286047001.1,N
1587682356.0,286047001.1,N
1587682375.8,286047002.3,N
1587682395.7,286047000.6,N
1587682415.5,286046999.3,N
1587682435.3,286046999.5,N
1587682455.2,286046999.1,N
1587682475.0,286047000.0,N
1587682475.9,286047000.0,N
1587682495.8,286047000.8,N
1587682515.6,286047000.9,N
1587682535.4,286046999.5,N
1587682555.3,286046999.4,N
1587682575.1,286046995.5,N
1587682595.9,286046997.9,N
1587682615.7,286046997.0,N
1587682635.5,286046997.5,N
1587682655.4,286046997.8,N
1587682675.2,286046996.1,N
1587682695.0,286046995.3,N
1587682696.0,286046995.3,N
1587682715.8,286046997.0,N
1587682735.6,286047001.2,N
1587682755.5,286046999.4,N
1587682775.3,286047001.1,N
1587682795.1,286046996.5,N
